Kozani, Greece

10:29 AM EET on January 17, 2018 (GMT +0200)
Kozani

Weather History for LGKZ - January, 2014

Change the Weather History Date:

Wednesday, January 22, 2014

  Actual Average Record
Temperature  
Mean Temperature 44 °F -  
Max Temperature 53 °F - - ()
Min Temperature 35 °F - - ()
Degree Days  
Heating Degree Days 21    
Moisture  
Dew Point 33 °F    
Average Humidity 68    
Maximum Humidity 87    
Minimum Humidity 47    
Precipitation  
Precipitation 0.00 in - - ()
Sea Level Pressure  
Sea Level Pressure 29.87 in    
Wind  
Wind Speed 4 mph ()    
Max Wind Speed 10 mph    
Max Gust Speed -    
Visibility 6.2 miles    
Events Rain    
T = Trace of Precipitation, MM = Missing Value Source: Averaged Metar Reports

Daily Weather History Graph

Daily Weather History Graph

Search for Another Location

Airport or City:

Trip Planner

Search our weather history database for the weather conditions in past years. The results will help you decide how hot, cold, wet, or windy it might be!

Date:

Astronomy

Jan. 22, 2014 Rise Set
Actual Time 7:50 AM EET 5:39 PM EET
Civil Twilight 7:20 AM EET 6:08 PM EET
Nautical Twilight 6:47 AM EET 6:41 PM EET
Astronomical Twilight 6:15 AM EET 7:14 PM EET
Moon 11:53 PM EET (1/22) 10:40 AM EET (1/22)
Length of Visible Light 10h 47m
Length of Day
9h 48m
Waning Gibbous, 68% of the Moon is Illuminated
Jan 22
Waning Gibbous
Jan 24
Last Quarter
Jan 30
New
Feb 6
First Quarter
Feb 15
Full

Hourly Weather History & Observations

Time (EET) Temp. Windchill Dew Point Humidity Pressure Visibility Wind Dir Wind Speed Gust Speed Precip Events Conditions
12:20 AM 41.0 °F - 33.8 °F 76% 29.80 in - Variable 1.2 mph - N/A Rain Light Rain
12:50 AM 41.0 °F 39.0 °F 33.8 °F 76% 29.80 in - Variable 3.5 mph - N/A   Unknown
1:20 AM 39.2 °F - 32.0 °F 75% 29.80 in - Variable 1.2 mph - N/A   Unknown
1:50 AM 39.2 °F 37.0 °F 32.0 °F 75% 29.80 in - Variable 3.5 mph - N/A   Unknown
2:20 AM 37.4 °F 32.1 °F 32.0 °F 81% 29.80 in - NNE 6.9 mph - N/A   Unknown
2:50 AM 37.4 °F 34.9 °F 32.0 °F 81% 29.80 in - Variable 3.5 mph - N/A   Unknown
3:20 AM 37.4 °F 33.8 °F 32.0 °F 81% 29.80 in - East 4.6 mph - N/A   Unknown
3:50 AM 39.2 °F 37.0 °F 32.0 °F 75% 29.80 in - Variable 3.5 mph - N/A   Unknown
4:20 AM 39.2 °F 35.0 °F 32.0 °F 75% 29.80 in - North 5.8 mph - N/A   Unknown
4:50 AM 39.2 °F 37.0 °F 33.8 °F 81% 29.80 in - Variable 3.5 mph - N/A   Unknown
5:20 AM 42.8 °F 41.1 °F 33.8 °F 70% 29.80 in - Variable 3.5 mph - N/A   Unknown
5:50 AM 39.2 °F 35.9 °F 32.0 °F 75% 29.80 in - North 4.6 mph - N/A   Unknown
6:20 AM 39.2 °F 37.0 °F 32.0 °F 75% 29.80 in - Variable 3.5 mph - N/A   Unknown
6:50 AM 39.2 °F - 32.0 °F 75% 29.80 in 6.2 mi Calm Calm - N/A   Scattered Clouds
7:50 AM 35.6 °F - 32.0 °F 87% 29.83 in 6.2 mi Calm Calm - N/A   Scattered Clouds
8:50 AM 42.8 °F - 33.8 °F 70% 29.83 in 6.2 mi Calm Calm - N/A   Scattered Clouds
9:50 AM 48.2 °F - 35.6 °F 62% 29.86 in 6.2 mi ESE 6.9 mph - N/A   Scattered Clouds
10:50 AM 48.2 °F - 35.6 °F 62% 29.89 in 6.2 mi SE 5.8 mph - N/A   Scattered Clouds
11:50 AM 50.0 °F - 35.6 °F 58% 29.89 in 6.2 mi Calm Calm - N/A   Mostly Cloudy
12:50 PM 53.6 °F - 33.8 °F 47% 29.86 in 6.2 mi Variable 4.6 mph - N/A   Mostly Cloudy
1:50 PM 53.6 °F - 33.8 °F 47% 29.86 in 6.2 mi West 10.4 mph - N/A   Mostly Cloudy
2:50 PM 53.6 °F - 33.8 °F 47% 29.86 in 6.2 mi West 10.4 mph - N/A   Scattered Clouds
3:50 PM 53.6 °F - 33.8 °F 47% 29.89 in 6.2 mi WSW 8.1 mph - N/A   Scattered Clouds
4:50 PM 53.6 °F - 33.8 °F 47% 29.89 in 6.2 mi WSW 10.4 mph - N/A   Scattered Clouds
5:50 PM 50.0 °F - 32.0 °F 50% 29.89 in 6.2 mi West 9.2 mph - N/A   Scattered Clouds
6:50 PM 46.4 °F 42.9 °F 33.8 °F 62% 29.92 in 6.2 mi West 6.9 mph - N/A   Scattered Clouds
7:50 PM 46.4 °F 41.9 °F 33.8 °F 62% 29.95 in 6.2 mi West 9.2 mph - N/A   Scattered Clouds
8:20 PM 46.4 °F 45.2 °F 33.8 °F 62% 29.95 in - Variable 3.5 mph - N/A   Unknown
8:50 PM 44.6 °F - 33.8 °F 66% 29.95 in - Variable 2.3 mph - N/A   Unknown
9:20 PM 46.4 °F 44.3 °F 33.8 °F 62% 29.98 in - SSE 4.6 mph - N/A   Unknown
9:50 PM 42.8 °F 41.1 °F 33.8 °F 70% 29.98 in - Variable 3.5 mph - N/A   Unknown
10:20 PM 41.0 °F 38.0 °F 32.0 °F 70% 29.98 in - North 4.6 mph - N/A   Unknown
10:50 PM 41.0 °F 38.0 °F 32.0 °F 70% 29.98 in - North 4.6 mph - N/A   Unknown
11:20 PM 41.0 °F 39.0 °F 32.0 °F 70% 29.98 in - Variable 3.5 mph - N/A   Unknown
11:50 PM 41.0 °F - 33.8 °F 76% 29.98 in - Variable 1.2 mph - N/A   Unknown